VIR25B EGLL-KJFK

Flight info

Callsign VIR25B
Flight time N/A
Altitude 38000
Route CPT L9 BIBPE/N0484F380 DCT BUCGO DCT FELCA DCT NICXI DCT BAKUR DCT NEBIN/M084F390 NATD IBERG/N0479F400 N364A TUSKY DCT PLYMM PARCH4
Aircraft B789/H-SDE1E2E3FGHIJ2J3J4J5M1RWXY/LB1D1

Departure

Time 2026-05-07 11:14
Airport London Heathrow Airport (EGLL)

Arrival

Time N/A
Airport John F. Kennedy International Airport (KJFK)
Time Latitude Longitude Altitude Speed Heading
2026-05-07 10:34 51.47094 -0.46421 95 ft 0 kts 235°
2026-05-07 11:00 51.47102 -0.46402 93 ft 4 kts 235°
2026-05-07 11:01 51.47117 -0.46367 93 ft 3 kts 236°
2026-05-07 11:01 51.47128 -0.46339 92 ft 4 kts 257°
2026-05-07 11:01 51.47127 -0.46310 92 ft 4 kts 304°
2026-05-07 11:01 51.47111 -0.46285 93 ft 4 kts 326°
2026-05-07 11:02 51.47088 -0.46261 92 ft 4 kts 326°
2026-05-07 11:02 51.47083 -0.46255 92 ft 0 kts 326°
2026-05-07 11:05 51.47091 -0.46264 92 ft 4 kts 326°
2026-05-07 11:05 51.47133 -0.46309 92 ft 10 kts 326°
2026-05-07 11:06 51.47205 -0.46386 93 ft 13 kts 327°
2026-05-07 11:06 51.47239 -0.46483 92 ft 9 kts 269°
2026-05-07 11:06 51.47239 -0.46588 91 ft 11 kts 270°
2026-05-07 11:06 51.47238 -0.46739 91 ft 15 kts 269°
2026-05-07 11:07 51.47213 -0.46855 95 ft 9 kts 214°
2026-05-07 11:07 51.47161 -0.46864 93 ft 8 kts 181°
2026-05-07 11:07 51.47090 -0.46864 91 ft 13 kts 180°
2026-05-07 11:07 51.46986 -0.46863 91 ft 16 kts 180°
2026-05-07 11:08 51.46874 -0.46862 94 ft 16 kts 180°
2026-05-07 11:08 51.46762 -0.46871 95 ft 15 kts 204°
2026-05-07 11:08 51.46745 -0.46951 95 ft 7 kts 273°
2026-05-07 11:08 51.46746 -0.47064 95 ft 13 kts 270°
2026-05-07 11:09 51.46746 -0.47239 95 ft 18 kts 270°
2026-05-07 11:09 51.46745 -0.47451 94 ft 19 kts 269°
2026-05-07 11:09 51.46745 -0.47668 91 ft 19 kts 269°
2026-05-07 11:09 51.46744 -0.47863 91 ft 14 kts 270°
2026-05-07 11:10 51.46744 -0.47991 93 ft 11 kts 269°
2026-05-07 11:10 51.46743 -0.48080 91 ft 4 kts 269°
2026-05-07 11:10 51.46743 -0.48133 91 ft 5 kts 271°
2026-05-07 11:10 51.46743 -0.48215 91 ft 9 kts 268°
2026-05-07 11:11 51.46742 -0.48343 91 ft 13 kts 269°
2026-05-07 11:11 51.46742 -0.48501 91 ft 16 kts 270°
2026-05-07 11:11 51.46742 -0.48675 91 ft 11 kts 268°
2026-05-07 11:11 51.46705 -0.48741 95 ft 7 kts 194°
2026-05-07 11:12 51.46654 -0.48748 91 ft 8 kts 183°
2026-05-07 11:12 51.46599 -0.48766 93 ft 9 kts 194°
2026-05-07 11:12 51.46540 -0.48784 95 ft 9 kts 178°
2026-05-07 11:12 51.46491 -0.48744 92 ft 7 kts 128°
2026-05-07 11:13 51.46478 -0.48667 94 ft 7 kts 91°
2026-05-07 11:13 51.46479 -0.48511 92 ft 31 kts 89°
2026-05-07 11:13 51.46480 -0.47839 92 ft 90 kts 89°
2026-05-07 11:13 51.46485 -0.46528 98 ft 143 kts 90°
2026-05-07 11:14 51.46492 -0.44718 331 ft 168 kts 85°
2026-05-07 11:14 51.46549 -0.42846 885 ft 175 kts 87°
2026-05-07 11:14 51.46498 -0.40825 1320 ft 185 kts 92°
2026-05-07 11:14 51.46308 -0.38806 1699 ft 193 kts 114°
2026-05-07 11:15 51.45281 -0.37299 1698 ft 216 kts 157°
2026-05-07 11:15 51.43729 -0.37233 1720 ft 241 kts 198°
2026-05-07 11:15 51.42389 -0.38877 2114 ft 251 kts 236°
2026-05-07 11:15 51.41817 -0.41505 2800 ft 250 kts 258°
2026-05-07 11:16 51.41463 -0.44233 3474 ft 251 kts 256°
2026-05-07 11:16 51.40949 -0.46918 4120 ft 254 kts 249°
2026-05-07 11:16 51.40486 -0.49640 4732 ft 259 kts 268°
2026-05-07 11:16 51.40749 -0.52490 5393 ft 262 kts 282°
2026-05-07 11:17 51.41205 -0.55303 5829 ft 265 kts 285°
2026-05-07 11:17 51.41676 -0.58146 6492 ft 263 kts 283°
2026-05-07 11:17 51.42037 -0.61019 7143 ft 264 kts 279°
2026-05-07 11:17 51.42361 -0.63942 7709 ft 268 kts 279°
2026-05-07 11:18 51.42712 -0.66899 8301 ft 272 kts 281°
2026-05-07 11:18 51.43085 -0.69894 8861 ft 276 kts 280°
2026-05-07 11:18 51.43460 -0.72939 9408 ft 282 kts 281°
2026-05-07 11:18 51.43824 -0.75951 9930 ft 286 kts 280°
2026-05-07 11:19 51.44209 -0.79120 10353 ft 296 kts 281°
2026-05-07 11:19 51.44612 -0.82407 10587 ft 311 kts 280°
2026-05-07 11:19 51.45038 -0.85895 10843 ft 327 kts 281°
2026-05-07 11:19 51.45480 -0.89546 11187 ft 338 kts 280°
2026-05-07 11:20 51.45909 -0.93278 11742 ft 342 kts 279°
2026-05-07 11:20 51.46330 -0.97046 12376 ft 345 kts 279°
2026-05-07 11:20 51.46763 -1.00846 12985 ft 348 kts 279°
2026-05-07 11:20 51.47204 -1.04680 13590 ft 351 kts 279°
2026-05-07 11:21 51.47645 -1.08549 14164 ft 354 kts 279°
2026-05-07 11:21 51.48115 -1.12392 14697 ft 357 kts 282°
2026-05-07 11:21 51.48745 -1.16261 15242 ft 360 kts 284°
2026-05-07 11:21 51.49405 -1.20144 15799 ft 362 kts 283°
2026-05-07 11:22 51.50003 -1.24076 16339 ft 364 kts 282°
2026-05-07 11:22 51.50576 -1.28046 16872 ft 366 kts 282°
2026-05-07 11:22 51.51177 -1.32037 17405 ft 369 kts 282°
2026-05-07 11:22 51.51780 -1.35935 17928 ft 371 kts 282°
2026-05-07 11:23 51.52396 -1.39972 18434 ft 373 kts 282°
2026-05-07 11:23 51.53003 -1.44033 18880 ft 376 kts 282°
2026-05-07 11:23 51.53607 -1.48072 19336 ft 377 kts 282°
2026-05-07 11:23 51.54225 -1.52179 19779 ft 379 kts 282°
2026-05-07 11:24 51.54845 -1.56311 20210 ft 382 kts 282°
2026-05-07 11:24 51.55464 -1.60464 20636 ft 384 kts 282°
2026-05-07 11:24 51.56086 -1.64654 21072 ft 386 kts 282°
2026-05-07 11:24 51.56711 -1.68864 21461 ft 389 kts 282°
2026-05-07 11:25 51.57340 -1.73111 21845 ft 392 kts 282°
2026-05-07 11:25 51.57971 -1.77380 22242 ft 394 kts 282°
2026-05-07 11:25 51.58603 -1.81674 22637 ft 396 kts 282°
2026-05-07 11:25 51.59229 -1.85942 23032 ft 398 kts 282°
2026-05-07 11:26 51.59865 -1.90288 23390 ft 401 kts 282°
2026-05-07 11:26 51.60486 -1.94545 23750 ft 403 kts 282°
2026-05-07 11:26 51.61127 -1.98941 24068 ft 404 kts 282°
2026-05-07 11:26 51.61768 -2.03357 24376 ft 407 kts 282°
2026-05-07 11:27 51.62411 -2.07801 24664 ft 409 kts 282°
2026-05-07 11:27 51.63055 -2.12269 24955 ft 411 kts 282°
2026-05-07 11:27 51.63701 -2.16758 25243 ft 413 kts 282°
2026-05-07 11:27 51.64342 -2.21220 25525 ft 415 kts 282°
2026-05-07 11:28 51.64991 -2.25759 25814 ft 418 kts 282°
2026-05-07 11:28 51.65642 -2.30325 26102 ft 420 kts 282°
2026-05-07 11:28 51.66297 -2.34929 26381 ft 422 kts 282°
2026-05-07 11:28 51.66951 -2.39543 26657 ft 424 kts 282°
2026-05-07 11:29 51.67608 -2.44187 26953 ft 426 kts 281°
2026-05-07 11:29 51.68264 -2.48850 27264 ft 427 kts 281°
2026-05-07 11:29 51.68922 -2.53532 27539 ft 430 kts 281°
2026-05-07 11:29 51.69582 -2.58247 27802 ft 432 kts 281°
2026-05-07 11:30 51.70234 -2.62918 28059 ft 434 kts 281°
2026-05-07 11:30 51.70860 -2.67412 28318 ft 436 kts 281°
2026-05-07 11:30 51.71524 -2.72204 28575 ft 438 kts 281°
2026-05-07 11:30 51.72188 -2.77008 28828 ft 441 kts 281°
2026-05-07 11:31 51.72855 -2.81847 29137 ft 443 kts 281°
2026-05-07 11:31 51.73524 -2.86710 29391 ft 445 kts 281°
2026-05-07 11:31 51.74194 -2.91601 29665 ft 447 kts 281°
2026-05-07 11:31 51.74864 -2.96515 29945 ft 450 kts 281°
2026-05-07 11:32 51.76201 -3.06364 30399 ft 455 kts 281°
2026-05-07 11:32 51.76877 -3.11369 30609 ft 457 kts 281°
2026-05-07 11:32 51.77554 -3.16410 30762 ft 462 kts 281°
2026-05-07 11:33 51.78237 -3.21495 30943 ft 465 kts 281°
2026-05-07 11:33 51.78920 -3.26596 31221 ft 466 kts 281°
2026-05-07 11:33 51.79604 -3.31728 31446 ft 469 kts 281°
2026-05-07 11:33 51.80287 -3.36887 31712 ft 471 kts 281°
2026-05-07 11:34 51.80973 -3.42071 31930 ft 473 kts 280°
2026-05-07 11:34 51.81659 -3.47280 32263 ft 473 kts 281°
2026-05-07 11:34 51.82335 -3.52424 32530 ft 475 kts 281°
2026-05-07 11:34 51.83019 -3.57653 32880 ft 476 kts 280°
2026-05-07 11:35 51.83702 -3.62902 33079 ft 479 kts 281°
2026-05-07 11:35 51.84386 -3.68187 33333 ft 482 kts 280°
2026-05-07 11:35 51.85073 -3.73502 33584 ft 484 kts 280°
2026-05-07 11:35 51.85760 -3.78842 33904 ft 485 kts 280°
2026-05-07 11:36 51.86447 -3.84197 34148 ft 487 kts 281°
2026-05-07 11:36 51.87133 -3.89565 34429 ft 488 kts 280°
2026-05-07 11:36 51.87808 -3.94879 34704 ft 488 kts 280°
2026-05-07 11:36 51.88490 -4.00257 35046 ft 488 kts 280°
2026-05-07 11:37 51.89168 -4.05635 35378 ft 487 kts 280°
2026-05-07 11:37 51.89844 -4.11012 35713 ft 487 kts 280°
2026-05-07 11:37 51.90516 -4.16376 36051 ft 486 kts 280°
2026-05-07 11:37 51.91185 -4.21738 36377 ft 486 kts 280°
2026-05-07 11:38 51.91851 -4.27102 36697 ft 485 kts 279°
2026-05-07 11:38 51.92514 -4.32459 37016 ft 485 kts 279°
2026-05-07 11:38 51.93174 -4.37812 37335 ft 484 kts 279°
2026-05-07 11:38 51.93830 -4.43161 37662 ft 484 kts 280°
2026-05-07 11:39 51.94477 -4.48445 37932 ft 485 kts 279°
2026-05-07 11:39 51.95786 -4.59223 38017 ft 487 kts 279°
2026-05-07 11:40 51.97080 -4.69947 38013 ft 483 kts 279°
2026-05-07 11:40 51.98358 -4.80634 38019 ft 482 kts 279°
2026-05-07 11:41 51.99617 -4.91244 38018 ft 482 kts 279°
2026-05-07 11:41 52.00890 -5.01931 38010 ft 482 kts 281°
2026-05-07 11:41 52.01964 -5.07091 38010 ft 484 kts 293°
2026-05-07 11:42 52.03599 -5.11876 38044 ft 486 kts 300°
2026-05-07 11:42 52.07139 -5.21250 38033 ft 487 kts 299°
2026-05-07 11:43 52.10579 -5.30754 38024 ft 487 kts 299°
2026-05-07 11:43 52.14043 -5.40149 38046 ft 488 kts 299°
2026-05-07 11:44 52.17498 -5.49660 38032 ft 488 kts 299°
2026-05-07 11:44 52.20957 -5.59171 38024 ft 488 kts 299°
2026-05-07 11:45 52.24251 -5.68827 37999 ft 486 kts 290°
2026-05-07 11:45 52.26175 -5.79288 38022 ft 485 kts 284°
2026-05-07 11:46 52.28038 -5.89889 38019 ft 486 kts 285°
2026-05-07 11:46 52.29928 -6.00473 38012 ft 485 kts 284°
2026-05-07 11:47 52.31766 -6.11073 38007 ft 484 kts 284°
2026-05-07 11:47 52.33315 -6.19862 37996 ft 484 kts 284°
2026-05-07 11:48 52.35434 -6.32151 37996 ft 483 kts 284°
2026-05-07 11:48 52.37264 -6.42739 37997 ft 484 kts 284°
2026-05-07 11:49 52.39082 -6.53380 37997 ft 486 kts 284°
2026-05-07 11:49 52.40591 -6.62230 37985 ft 485 kts 284°
2026-05-07 11:50 52.42679 -6.74573 37986 ft 483 kts 283°
2026-05-07 11:50 52.44464 -6.85189 37984 ft 483 kts 283°
2026-05-07 11:51 52.45941 -6.94028 37985 ft 484 kts 283°
2026-05-07 11:51 52.47712 -7.04683 37985 ft 485 kts 283°
2026-05-07 11:52 52.49759 -7.17080 37982 ft 484 kts 283°
2026-05-07 11:52 52.51197 -7.25849 37975 ft 484 kts 283°
2026-05-07 11:53 52.52928 -7.36455 37973 ft 484 kts 283°
2026-05-07 11:53 52.54658 -7.47128 37960 ft 483 kts 283°
2026-05-07 11:54 52.56376 -7.57793 37964 ft 482 kts 283°
2026-05-07 11:54 52.58080 -7.68439 37959 ft 481 kts 283°
2026-05-07 11:55 52.59774 -7.79093 37960 ft 482 kts 283°
2026-05-07 11:55 52.61450 -7.89693 37964 ft 483 kts 282°
2026-05-07 11:56 52.63132 -8.00405 37963 ft 484 kts 282°
2026-05-07 11:56 52.64804 -8.11125 37955 ft 483 kts 282°
2026-05-07 11:57 52.66459 -8.21807 37948 ft 480 kts 282°
2026-05-07 11:57 52.68091 -8.32405 37945 ft 481 kts 282°
2026-05-07 11:58 52.69727 -8.43103 37948 ft 482 kts 282°
2026-05-07 11:58 52.71355 -8.53816 37964 ft 482 kts 282°
2026-05-07 11:59 52.72971 -8.64524 37964 ft 480 kts 282°
2026-05-07 11:59 52.74561 -8.75130 37945 ft 479 kts 282°
2026-05-07 12:00 52.76154 -8.85831 37947 ft 481 kts 281°
2026-05-07 12:00 52.77741 -8.96558 37956 ft 481 kts 281°
2026-05-07 12:01 52.79317 -9.07295 37959 ft 482 kts 281°
2026-05-07 12:01 52.80879 -9.17995 37950 ft 481 kts 281°
2026-05-07 12:02 52.82434 -9.28734 37950 ft 480 kts 281°
2026-05-07 12:02 52.83978 -9.39466 37951 ft 480 kts 281°
2026-05-07 12:03 52.85502 -9.50127 37950 ft 479 kts 281°
2026-05-07 12:03 52.87024 -9.60859 37955 ft 479 kts 281°
2026-05-07 12:04 52.88534 -9.71578 37953 ft 477 kts 281°
2026-05-07 12:04 52.90030 -9.82273 37949 ft 477 kts 280°
2026-05-07 12:05 52.91508 -9.92915 37953 ft 478 kts 280°
2026-05-07 12:05 52.92989 -10.03658 37955 ft 479 kts 280°
2026-05-07 12:06 52.94464 -10.14435 37958 ft 480 kts 280°
2026-05-07 12:06 52.95928 -10.25200 37946 ft 476 kts 280°
2026-05-07 12:07 52.97369 -10.35889 37941 ft 475 kts 280°
2026-05-07 12:07 52.98792 -10.46509 37943 ft 475 kts 280°
2026-05-07 12:08 53.00215 -10.57215 37940 ft 475 kts 280°
2026-05-07 12:08 53.01630 -10.67935 37943 ft 475 kts 279°
2026-05-07 12:09 53.03035 -10.78662 37944 ft 475 kts 279°
2026-05-07 12:09 53.04421 -10.89327 37939 ft 476 kts 279°
2026-05-07 12:10 53.05807 -11.00074 37939 ft 476 kts 279°
2026-05-07 12:10 53.07184 -11.10829 37939 ft 476 kts 279°
2026-05-07 12:11 53.08551 -11.21588 37941 ft 476 kts 279°
2026-05-07 12:11 53.09907 -11.32344 37933 ft 472 kts 279°
2026-05-07 12:12 53.11230 -11.42923 37921 ft 470 kts 279°
2026-05-07 12:12 53.12553 -11.53588 37936 ft 471 kts 279°
2026-05-07 12:13 53.13874 -11.64305 37942 ft 473 kts 279°
2026-05-07 12:13 53.15186 -11.75049 37942 ft 473 kts 279°
2026-05-07 12:14 53.16479 -11.85708 37923 ft 470 kts 279°
2026-05-07 12:14 53.17759 -11.96357 37930 ft 468 kts 278°
2026-05-07 12:15 53.19028 -12.07003 37927 ft 469 kts 278°
2026-05-07 12:15 53.20291 -12.17668 37933 ft 469 kts 278°
2026-05-07 12:16 53.21535 -12.28273 37934 ft 469 kts 278°
2026-05-07 12:16 53.22779 -12.38958 37944 ft 469 kts 278°
2026-05-07 12:17 53.24014 -12.49657 37937 ft 470 kts 278°
2026-05-07 12:17 53.25241 -12.60374 37941 ft 470 kts 278°
2026-05-07 12:18 53.26450 -12.71029 37943 ft 470 kts 278°
2026-05-07 12:18 53.27658 -12.81764 37942 ft 471 kts 278°
2026-05-07 12:19 53.28859 -12.92526 37957 ft 471 kts 278°
2026-05-07 12:19 53.30049 -13.03275 37942 ft 469 kts 278°
2026-05-07 12:20 53.31222 -13.13971 37937 ft 467 kts 278°
2026-05-07 12:20 53.32376 -13.24588 37938 ft 468 kts 278°
2026-05-07 12:21 53.33532 -13.35312 37943 ft 469 kts 278°
2026-05-07 12:21 53.34680 -13.46063 37950 ft 470 kts 278°
2026-05-07 12:22 53.35814 -13.56773 37948 ft 468 kts 278°
2026-05-07 12:22 53.36939 -13.67498 37945 ft 467 kts 278°
2026-05-07 12:23 53.38053 -13.78211 37952 ft 467 kts 278°
2026-05-07 12:23 53.39157 -13.88927 37948 ft 467 kts 278°
2026-05-07 12:24 53.40244 -13.99578 37950 ft 467 kts 278°
2026-05-07 12:24 53.41327 -14.10288 37976 ft 465 kts 277°
2026-05-07 12:25 53.42399 -14.20995 37950 ft 466 kts 277°
2026-05-07 12:25 53.43463 -14.31717 37951 ft 466 kts 277°
2026-05-07 12:26 53.44510 -14.42374 37958 ft 466 kts 277°
2026-05-07 12:26 53.45555 -14.53109 37958 ft 466 kts 277°
2026-05-07 12:27 53.46592 -14.63857 37960 ft 467 kts 277°
2026-05-07 12:27 53.47620 -14.74630 37963 ft 468 kts 277°
2026-05-07 12:28 53.48641 -14.85428 37967 ft 469 kts 277°
2026-05-07 12:28 53.49647 -14.96185 37967 ft 470 kts 277°
2026-05-07 12:29 53.50131 -15.06940 38194 ft 466 kts 270°
2026-05-07 12:29 53.50241 -15.12372 38570 ft 465 kts 271°
2026-05-07 12:29 53.50365 -15.17796 38809 ft 465 kts 271°
2026-05-07 12:29 53.50472 -15.23238 38925 ft 468 kts 270°
2026-05-07 12:30 53.50565 -15.28731 38957 ft 472 kts 270°
2026-05-07 12:30 53.50763 -15.39659 38973 ft 469 kts 270°
2026-05-07 12:31 53.50952 -15.50606 38961 ft 468 kts 270°
2026-05-07 12:31 53.51127 -15.61532 38962 ft 468 kts 270°
2026-05-07 12:32 53.51295 -15.72453 38968 ft 468 kts 270°
2026-05-07 12:32 53.51451 -15.83372 38966 ft 467 kts 270°
2026-05-07 12:33 53.51667 -15.99653 38964 ft 466 kts 270°
2026-05-07 12:33 53.51798 -16.10541 38967 ft 466 kts 270°
2026-05-07 12:34 53.51920 -16.21426 38969 ft 466 kts 270°
2026-05-07 12:34 53.52031 -16.32239 38969 ft 466 kts 270°
2026-05-07 12:35 53.52133 -16.43130 38975 ft 467 kts 270°
2026-05-07 12:35 53.52226 -16.54052 38976 ft 468 kts 270°
2026-05-07 12:36 53.52308 -16.65000 38980 ft 469 kts 270°
2026-05-07 12:36 53.52381 -16.75968 38985 ft 470 kts 269°
2026-05-07 12:37 53.52443 -16.86851 38987 ft 468 kts 270°
2026-05-07 12:37 53.52496 -16.97764 38981 ft 466 kts 269°
2026-05-07 12:38 53.52538 -17.08638 38998 ft 465 kts 269°
2026-05-07 12:38 53.52571 -17.19541 39000 ft 468 kts 269°
2026-05-07 12:39 53.52594 -17.30415 39009 ft 469 kts 269°
2026-05-07 12:39 53.52607 -17.41375 39007 ft 468 kts 269°
2026-05-07 12:40 53.52610 -17.52305 39005 ft 467 kts 269°
2026-05-07 12:40 53.52602 -17.63217 39002 ft 467 kts 269°
2026-05-07 12:41 53.52586 -17.74037 39008 ft 466 kts 269°
2026-05-07 12:41 53.52559 -17.84914 39010 ft 465 kts 269°
2026-05-07 12:42 53.52522 -17.95786 39007 ft 466 kts 269°
2026-05-07 12:42 53.52476 -18.06688 39012 ft 467 kts 269°
2026-05-07 12:43 53.52419 -18.17628 39023 ft 469 kts 269°
2026-05-07 12:43 53.52352 -18.28526 39025 ft 470 kts 269°
2026-05-07 12:44 53.52276 -18.39478 39024 ft 468 kts 269°
2026-05-07 12:44 53.52189 -18.50382 39016 ft 466 kts 269°
2026-05-07 12:45 53.52093 -18.61256 39020 ft 466 kts 269°
2026-05-07 12:45 53.51988 -18.72083 39023 ft 467 kts 269°
2026-05-07 12:46 53.51871 -18.83021 39033 ft 469 kts 269°
2026-05-07 12:46 53.51745 -18.93995 39037 ft 470 kts 269°
2026-05-07 12:47 53.51608 -19.04964 39037 ft 470 kts 269°
2026-05-07 12:47 53.51462 -19.15862 39042 ft 470 kts 269°
2026-05-07 12:48 53.51305 -19.26830 39043 ft 470 kts 269°
2026-05-07 12:48 53.51138 -19.37795 39051 ft 470 kts 269°
2026-05-07 12:49 53.50961 -19.48762 39040 ft 470 kts 269°
2026-05-07 12:49 53.50774 -19.59738 39039 ft 471 kts 269°
2026-05-07 12:50 53.50578 -19.70669 39042 ft 471 kts 269°
2026-05-07 12:50 53.50370 -19.81655 39047 ft 470 kts 268°
2026-05-07 12:51 53.50154 -19.92602 39046 ft 468 kts 268°
2026-05-07 12:51 53.49812 -20.03509 39047 ft 467 kts 265°
2026-05-07 12:52 53.49173 -20.14422 39056 ft 471 kts 265°
2026-05-07 12:52 53.48551 -20.25306 39062 ft 472 kts 265°
2026-05-07 12:53 53.47899 -20.36268 39062 ft 472 kts 265°
2026-05-07 12:53 53.47246 -20.47222 39064 ft 472 kts 265°
2026-05-07 12:54 53.46577 -20.58173 39058 ft 472 kts 265°
2026-05-07 12:54 53.45906 -20.69059 39075 ft 473 kts 265°
2026-05-07 12:55 53.45216 -20.80044 39076 ft 473 kts 265°
2026-05-07 12:55 53.44519 -20.91005 39079 ft 472 kts 265°
2026-05-07 12:56 53.43813 -21.01939 39071 ft 471 kts 265°
2026-05-07 12:56 53.43102 -21.12771 39071 ft 470 kts 265°
2026-05-07 12:57 53.42378 -21.23684 39070 ft 472 kts 265°
2026-05-07 12:57 53.41640 -21.34627 39076 ft 473 kts 265°
2026-05-07 12:58 53.40891 -21.45597 39081 ft 474 kts 264°
2026-05-07 12:58 53.40131 -21.56561 39086 ft 473 kts 264°
2026-05-07 12:59 53.39369 -21.67412 39084 ft 471 kts 264°
2026-05-07 12:59 53.38595 -21.78305 39082 ft 470 kts 264°
2026-05-07 13:00 53.37812 -21.89166 39078 ft 469 kts 264°
2026-05-07 13:00 53.37018 -22.00036 39083 ft 471 kts 264°
2026-05-07 13:01 53.36217 -22.10872 39086 ft 473 kts 264°
2026-05-07 13:01 53.35398 -22.21814 39084 ft 474 kts 264°
2026-05-07 13:02 53.34568 -22.32754 39092 ft 473 kts 264°
2026-05-07 13:02 53.33730 -22.43669 39090 ft 472 kts 264°
2026-05-07 13:03 53.32884 -22.54558 39096 ft 472 kts 264°
2026-05-07 13:03 53.32035 -22.65353 39083 ft 471 kts 264°
2026-05-07 13:04 53.31169 -22.76239 39107 ft 473 kts 264°
2026-05-07 13:04 53.30290 -22.87155 39112 ft 474 kts 264°
2026-05-07 13:05 53.29399 -22.98090 39108 ft 476 kts 264°
2026-05-07 13:05 53.28501 -23.08979 39106 ft 476 kts 264°
2026-05-07 13:06 53.27590 -23.19911 39096 ft 474 kts 264°
2026-05-07 13:06 53.26670 -23.30819 39095 ft 474 kts 264°
2026-05-07 13:07 53.25741 -23.41717 39108 ft 474 kts 264°
2026-05-07 13:07 53.24808 -23.52534 39107 ft 474 kts 264°
2026-05-07 13:08 53.23859 -23.63420 39111 ft 474 kts 263°
2026-05-07 13:08 53.22899 -23.74319 39117 ft 475 kts 264°
2026-05-07 13:09 53.21926 -23.85245 39120 ft 476 kts 264°
2026-05-07 13:09 53.20948 -23.96107 39123 ft 477 kts 263°
2026-05-07 13:10 53.19954 -24.07038 39127 ft 477 kts 263°
2026-05-07 13:10 53.18950 -24.17964 39127 ft 476 kts 263°
2026-05-07 13:11 53.17936 -24.28877 39123 ft 477 kts 263°
2026-05-07 13:11 53.16910 -24.39811 39131 ft 478 kts 263°
2026-05-07 13:12 53.15879 -24.50680 39131 ft 479 kts 263°
2026-05-07 13:12 53.14832 -24.61617 39135 ft 477 kts 263°
2026-05-07 13:13 53.13777 -24.72514 39118 ft 475 kts 263°
2026-05-07 13:13 53.12717 -24.83375 39131 ft 476 kts 263°
2026-05-07 13:14 53.11644 -24.94252 39130 ft 477 kts 263°
2026-05-07 13:14 53.10566 -25.05080 39136 ft 478 kts 263°
2026-05-07 13:15 53.09468 -25.15997 39153 ft 479 kts 263°
2026-05-07 13:15 53.08358 -25.26919 39142 ft 478 kts 263°
2026-05-07 13:16 53.07241 -25.37827 39141 ft 479 kts 263°
2026-05-07 13:16 53.06120 -25.48662 39144 ft 479 kts 263°
2026-05-07 13:17 53.04980 -25.59575 39145 ft 479 kts 263°
2026-05-07 13:17 53.03830 -25.70489 39149 ft 479 kts 263°
2026-05-07 13:18 53.02671 -25.81383 39147 ft 479 kts 263°
2026-05-07 13:18 53.01504 -25.92257 39147 ft 478 kts 263°
2026-05-07 13:19 53.00336 -26.03040 39154 ft 477 kts 263°
2026-05-07 13:19 52.99226 -26.13206 39151 ft 477 kts 263°
2026-05-07 13:20 52.98034 -26.24023 39152 ft 476 kts 263°
2026-05-07 13:20 52.96833 -26.34824 39160 ft 477 kts 263°
2026-05-07 13:21 52.95627 -26.45585 39170 ft 479 kts 263°
2026-05-07 13:21 52.94397 -26.56457 39171 ft 479 kts 263°
2026-05-07 13:22 52.93161 -26.67289 39170 ft 478 kts 263°
2026-05-07 13:22 52.91916 -26.78114 39170 ft 477 kts 263°
2026-05-07 13:23 52.90676 -26.88808 39174 ft 476 kts 263°
2026-05-07 13:23 52.89418 -26.99563 39169 ft 476 kts 263°
2026-05-07 13:24 52.88148 -27.10328 39175 ft 477 kts 263°
2026-05-07 13:24 52.86871 -27.21065 39181 ft 479 kts 262°
2026-05-07 13:25 52.85576 -27.31866 39180 ft 478 kts 263°
2026-05-07 13:25 52.84275 -27.42628 39178 ft 477 kts 263°
2026-05-07 13:26 52.82964 -27.53390 39178 ft 476 kts 263°
2026-05-07 13:26 52.81655 -27.64051 39175 ft 476 kts 262°
2026-05-07 13:27 52.80329 -27.74759 39161 ft 476 kts 262°
2026-05-07 13:27 52.78993 -27.85464 39197 ft 476 kts 263°
2026-05-07 13:28 52.77647 -27.96176 39200 ft 477 kts 262°
2026-05-07 13:28 52.76296 -28.06834 39203 ft 478 kts 262°
2026-05-07 13:29 52.74925 -28.17570 39207 ft 478 kts 262°
2026-05-07 13:29 52.73541 -28.28314 39200 ft 478 kts 263°
2026-05-07 13:30 52.72164 -28.38938 39194 ft 475 kts 263°
2026-05-07 13:30 52.70783 -28.49514 39197 ft 474 kts 262°
2026-05-07 13:31 52.69383 -28.60144 39202 ft 475 kts 262°
2026-05-07 13:31 52.67972 -28.70790 39202 ft 476 kts 262°
2026-05-07 13:32 52.66550 -28.81427 39202 ft 475 kts 263°
2026-05-07 13:32 52.65122 -28.92047 39204 ft 475 kts 262°
2026-05-07 13:33 52.63693 -29.02585 39200 ft 475 kts 262°
2026-05-07 13:33 52.62245 -29.13193 39207 ft 475 kts 262°
2026-05-07 13:34 52.60055 -29.29083 39217 ft 473 kts 263°
2026-05-07 13:35 52.58596 -29.39591 39212 ft 470 kts 263°
2026-05-07 13:35 52.57141 -29.49990 39212 ft 470 kts 262°
2026-05-07 13:36 52.55666 -29.60456 39215 ft 470 kts 262°
2026-05-07 13:36 52.54182 -29.70913 39220 ft 470 kts 262°
2026-05-07 13:37 52.52691 -29.81337 39223 ft 467 kts 262°
2026-05-07 13:37 52.51200 -29.91719 39226 ft 468 kts 262°
2026-05-07 13:38 52.49774 -30.02044 39223 ft 464 kts 266°
2026-05-07 13:38 52.48707 -30.12502 39231 ft 465 kts 266°
2026-05-07 13:39 52.47595 -30.22967 39235 ft 466 kts 265°
2026-05-07 13:39 52.46492 -30.33401 39224 ft 463 kts 266°
2026-05-07 13:40 52.45386 -30.43729 39229 ft 463 kts 265°
2026-05-07 13:40 52.44264 -30.54127 39233 ft 463 kts 265°
2026-05-07 13:41 52.43131 -30.64531 39242 ft 464 kts 265°
2026-05-07 13:41 52.41988 -30.74936 39209 ft 464 kts 265°
2026-05-07 13:42 52.40846 -30.85260 39246 ft 464 kts 265°
2026-05-07 13:42 52.39682 -30.95680 39249 ft 466 kts 265°
2026-05-07 13:43 52.38507 -31.06107 39253 ft 465 kts 265°
2026-05-07 13:43 52.37327 -31.16497 39241 ft 463 kts 265°
2026-05-07 13:44 52.36144 -31.26839 39222 ft 461 kts 265°
2026-05-07 13:44 52.34960 -31.37097 39248 ft 463 kts 265°
2026-05-07 13:45 52.33754 -31.47460 39256 ft 465 kts 265°
2026-05-07 13:45 52.32537 -31.57835 39258 ft 465 kts 264°
2026-05-07 13:46 52.31310 -31.68213 39260 ft 465 kts 264°
2026-05-07 13:46 52.30083 -31.78514 39260 ft 465 kts 264°
2026-05-07 13:47 52.28837 -31.88887 39261 ft 465 kts 264°
2026-05-07 13:47 52.27582 -31.99249 39261 ft 465 kts 264°
2026-05-07 13:48 52.26318 -32.09609 39269 ft 465 kts 264°
2026-05-07 13:48 52.25055 -32.19886 39268 ft 465 kts 264°
2026-05-07 13:49 52.23775 -32.30212 39259 ft 464 kts 264°
2026-05-07 13:49 52.22486 -32.40546 39258 ft 466 kts 264°
2026-05-07 13:50 52.21183 -32.50907 39265 ft 467 kts 264°
2026-05-07 13:50 52.19879 -32.61190 39263 ft 465 kts 264°
2026-05-07 13:51 52.18563 -32.71506 39265 ft 465 kts 264°
2026-05-07 13:51 52.17236 -32.81819 39267 ft 467 kts 264°
2026-05-07 13:52 52.15891 -32.92201 39268 ft 469 kts 263°
2026-05-07 13:52 52.14546 -33.02504 39269 ft 468 kts 263°
2026-05-07 13:53 52.13183 -33.12876 39273 ft 468 kts 263°
2026-05-07 13:53 52.11811 -33.23235 39273 ft 468 kts 263°
2026-05-07 13:54 52.10431 -33.33582 39276 ft 469 kts 263°
2026-05-07 13:54 52.09048 -33.43870 39277 ft 469 kts 263°
2026-05-07 13:55 52.07647 -33.54225 39278 ft 469 kts 263°
2026-05-07 13:55 52.06237 -33.64576 39276 ft 469 kts 263°
2026-05-07 13:56 52.04818 -33.74919 39275 ft 469 kts 263°
2026-05-07 13:56 52.03404 -33.85140 39275 ft 466 kts 263°
2026-05-07 13:57 52.01978 -33.95398 39277 ft 466 kts 263°
2026-05-07 13:57 52.00542 -34.05649 39278 ft 466 kts 263°
2026-05-07 13:58 51.99097 -34.15897 39279 ft 466 kts 263°
2026-05-07 13:58 51.97653 -34.26051 39259 ft 464 kts 264°
2026-05-07 13:59 51.96203 -34.36205 39279 ft 462 kts 264°
2026-05-07 13:59 51.94743 -34.46349 39283 ft 462 kts 263°
2026-05-07 14:00 51.93274 -34.56489 39288 ft 462 kts 264°
2026-05-07 14:00 51.91796 -34.66625 39283 ft 462 kts 263°
2026-05-07 14:01 51.90320 -34.76677 39293 ft 461 kts 264°
2026-05-07 14:01 51.88825 -34.86808 39290 ft 464 kts 264°
2026-05-07 14:02 51.87314 -34.96959 39293 ft 464 kts 264°
2026-05-07 14:02 51.85794 -35.07119 39298 ft 465 kts 263°
2026-05-07 14:03 51.84275 -35.17203 39299 ft 465 kts 263°
2026-05-07 14:03 51.82738 -35.27340 39295 ft 463 kts 264°
2026-05-07 14:04 51.81197 -35.37455 39290 ft 463 kts 264°
2026-05-07 14:04 51.79645 -35.47561 39292 ft 463 kts 263°
2026-05-07 14:05 51.78096 -35.57592 39293 ft 463 kts 263°
2026-05-07 14:05 51.76527 -35.67687 39293 ft 464 kts 263°
2026-05-07 14:06 51.74956 -35.77717 39296 ft 459 kts 263°
2026-05-07 14:06 51.73389 -35.87705 39294 ft 460 kts 263°
2026-05-07 14:07 51.71813 -35.97646 39301 ft 461 kts 263°
2026-05-07 14:07 51.70217 -36.07673 39307 ft 462 kts 263°
2026-05-07 14:08 51.68609 -36.17705 39312 ft 462 kts 263°
2026-05-07 14:08 51.66998 -36.27706 39303 ft 461 kts 263°
2026-05-07 14:09 51.65385 -36.37656 39305 ft 463 kts 263°
2026-05-07 14:09 51.63747 -36.47694 39308 ft 464 kts 263°
2026-05-07 14:10 51.62104 -36.57707 39302 ft 462 kts 263°
2026-05-07 14:10 51.60458 -36.67684 39295 ft 461 kts 263°
2026-05-07 14:11 51.58817 -36.77569 39295 ft 460 kts 263°
2026-05-07 14:11 51.57160 -36.87498 39298 ft 461 kts 263°
2026-05-07 14:12 51.55488 -36.97452 39307 ft 462 kts 262°
2026-05-07 14:12 51.53801 -37.07438 39313 ft 464 kts 262°
2026-05-07 14:13 51.52114 -37.17368 39277 ft 464 kts 262°
2026-05-07 14:13 51.50408 -37.27348 39297 ft 463 kts 262°
2026-05-07 14:14 51.48696 -37.37316 39294 ft 463 kts 262°
2026-05-07 14:14 51.46975 -37.47274 39300 ft 463 kts 262°
2026-05-07 14:15 51.45258 -37.57154 39303 ft 463 kts 262°
2026-05-07 14:15 51.43523 -37.67081 39305 ft 462 kts 261°
2026-05-07 14:16 51.41778 -37.77018 39308 ft 464 kts 261°
2026-05-07 14:16 51.40017 -37.86978 39311 ft 464 kts 261°
2026-05-07 14:17 51.38263 -37.96851 39307 ft 464 kts 261°
2026-05-07 14:17 51.36491 -38.06767 39306 ft 463 kts 261°
2026-05-07 14:18 51.34713 -38.16669 39308 ft 464 kts 261°
2026-05-07 14:18 51.32914 -38.26623 39311 ft 466 kts 261°
2026-05-07 14:19 51.31118 -38.36508 39310 ft 466 kts 260°
2026-05-07 14:19 51.29303 -38.46449 39308 ft 466 kts 260°
2026-05-07 14:20 51.27477 -38.56393 39307 ft 466 kts 260°
2026-05-07 14:20 51.25645 -38.66325 39303 ft 466 kts 259°
2026-05-07 14:21 51.23815 -38.76172 39294 ft 461 kts 260°
2026-05-07 14:21 51.22000 -38.85914 39296 ft 462 kts 259°
2026-05-07 14:22 51.20158 -38.95726 39295 ft 462 kts 259°
2026-05-07 14:22 51.18309 -39.05539 39286 ft 462 kts 259°
2026-05-07 14:23 51.16453 -39.15331 39299 ft 462 kts 259°
2026-05-07 14:23 51.14598 -39.25066 39300 ft 463 kts 259°
2026-05-07 14:24 51.12719 -39.34878 39302 ft 463 kts 259°
2026-05-07 14:24 51.10832 -39.44681 39303 ft 463 kts 259°
2026-05-07 14:25 51.08939 -39.54464 39302 ft 463 kts 258°
2026-05-07 14:25 51.07046 -39.64201 39298 ft 465 kts 258°
2026-05-07 14:26 51.05127 -39.74017 39297 ft 465 kts 258°
2026-05-07 14:26 51.03200 -39.83824 39293 ft 465 kts 258°
2026-05-07 14:27 51.01264 -39.93627 39296 ft 465 kts 258°
2026-05-07 14:27 50.99644 -40.03422 39302 ft 457 kts 267°
2026-05-07 14:28 50.98612 -40.13407 39294 ft 458 kts 265°
2026-05-07 14:28 50.97559 -40.23351 39292 ft 456 kts 265°
2026-05-07 14:29 50.96518 -40.33275 39291 ft 456 kts 265°
2026-05-07 14:29 50.95451 -40.43203 39290 ft 456 kts 265°
2026-05-07 14:30 50.94395 -40.53061 39291 ft 458 kts 265°
2026-05-07 14:30 50.93310 -40.63041 39296 ft 460 kts 265°
2026-05-07 14:31 50.92216 -40.73047 39298 ft 460 kts 265°
2026-05-07 14:31 50.91112 -40.83043 39295 ft 461 kts 265°
2026-05-07 14:32 50.90008 -40.92971 39296 ft 461 kts 265°
2026-05-07 14:32 50.88888 -41.02959 39268 ft 460 kts 264°
2026-05-07 14:33 50.87760 -41.12939 39271 ft 461 kts 264°
2026-05-07 14:33 50.86627 -41.22875 39278 ft 460 kts 264°
2026-05-07 14:34 50.85481 -41.32857 39278 ft 460 kts 264°
2026-05-07 14:34 50.84327 -41.42825 39274 ft 460 kts 264°
2026-05-07 14:35 50.83174 -41.52709 39275 ft 460 kts 264°
2026-05-07 14:35 50.82005 -41.62649 39267 ft 460 kts 263°
2026-05-07 14:36 50.80828 -41.72580 39272 ft 459 kts 263°
2026-05-07 14:36 50.79845 -41.80824 39261 ft 459 kts 263°
2026-05-07 14:37 50.78460 -41.92339 39270 ft 459 kts 263°
2026-05-07 14:37 50.76657 -42.07187 39282 ft 460 kts 263°
2026-05-07 14:38 50.75642 -42.15481 39280 ft 464 kts 263°
2026-05-07 14:38 50.74408 -42.25473 39282 ft 463 kts 263°
2026-05-07 14:39 50.72968 -42.37065 39279 ft 463 kts 263°
2026-05-07 14:39 50.71720 -42.47016 39281 ft 462 kts 263°
2026-05-07 14:40 50.70678 -42.55276 39262 ft 462 kts 262°
2026-05-07 14:40 50.69414 -42.65230 39273 ft 464 kts 262°
2026-05-07 14:41 50.68136 -42.75217 39275 ft 465 kts 262°
2026-05-07 14:41 50.66849 -42.85210 39277 ft 465 kts 262°
2026-05-07 14:42 50.65561 -42.95132 39282 ft 465 kts 262°
2026-05-07 14:42 50.64260 -43.05083 39276 ft 462 kts 262°
2026-05-07 14:43 50.62953 -43.15019 39273 ft 465 kts 261°
2026-05-07 14:43 50.61628 -43.25011 39275 ft 466 kts 261°
2026-05-07 14:44 50.60304 -43.34934 39274 ft 466 kts 261°
2026-05-07 14:44 50.58961 -43.44920 39275 ft 466 kts 261°
2026-05-07 14:45 50.57611 -43.54900 39272 ft 466 kts 261°
2026-05-07 14:45 50.56250 -43.64892 39267 ft 469 kts 261°
2026-05-07 14:46 50.54883 -43.74844 39265 ft 468 kts 261°
2026-05-07 14:46 50.53505 -43.84823 39261 ft 467 kts 260°
2026-05-07 14:47 50.52121 -43.94780 39269 ft 465 kts 260°
2026-05-07 14:47 50.50732 -44.04697 39265 ft 465 kts 260°
2026-05-07 14:48 50.49343 -44.14554 39266 ft 466 kts 259°
2026-05-07 14:48 50.47932 -44.24494 39269 ft 467 kts 259°
2026-05-07 14:49 50.46510 -44.34456 39276 ft 468 kts 259°
2026-05-07 14:49 50.45077 -44.44424 39280 ft 468 kts 259°
2026-05-07 14:50 50.43648 -44.54301 39276 ft 467 kts 259°
2026-05-07 14:50 50.42206 -44.64207 39259 ft 465 kts 259°
2026-05-07 14:51 50.40759 -44.74076 39263 ft 465 kts 259°
2026-05-07 14:51 50.39303 -44.83950 39262 ft 465 kts 259°
2026-05-07 14:52 50.37853 -44.93718 39266 ft 462 kts 258°
2026-05-07 14:52 50.36387 -45.03537 39268 ft 464 kts 258°
2026-05-07 14:53 50.34908 -45.13373 39271 ft 464 kts 258°
2026-05-07 14:53 50.33421 -45.23208 39270 ft 464 kts 258°
2026-05-07 14:54 50.31935 -45.32977 39272 ft 465 kts 258°
2026-05-07 14:54 50.30430 -45.42807 39273 ft 465 kts 258°
2026-05-07 14:55 50.28915 -45.52638 39276 ft 465 kts 258°
2026-05-07 14:55 50.27394 -45.62452 39266 ft 464 kts 258°
2026-05-07 14:56 50.25877 -45.72181 39266 ft 464 kts 258°
2026-05-07 14:56 50.24344 -45.81955 39269 ft 461 kts 258°
2026-05-07 14:57 50.22816 -45.91638 39271 ft 459 kts 257°
2026-05-07 14:57 50.21278 -46.01328 39271 ft 461 kts 257°
2026-05-07 14:58 50.19737 -46.10976 39274 ft 461 kts 257°
2026-05-07 14:58 50.18183 -46.20654 39274 ft 459 kts 257°
2026-05-07 14:59 50.16625 -46.30305 39270 ft 459 kts 257°
2026-05-07 14:59 50.15058 -46.39947 39273 ft 458 kts 257°
2026-05-07 15:00 50.13496 -46.49508 39275 ft 459 kts 257°
2026-05-07 15:00 50.11912 -46.59148 39273 ft 460 kts 257°
2026-05-07 15:01 50.10317 -46.68800 39278 ft 461 kts 257°
2026-05-07 15:01 50.08714 -46.78444 39267 ft 458 kts 257°
2026-05-07 15:02 50.07125 -46.87951 39264 ft 456 kts 257°
2026-05-07 15:02 50.05519 -46.97505 39263 ft 456 kts 257°
2026-05-07 15:03 50.03906 -47.07054 39276 ft 457 kts 256°
2026-05-07 15:03 50.02280 -47.16619 39278 ft 458 kts 256°
2026-05-07 15:04 50.00654 -47.26136 39284 ft 459 kts 256°
2026-05-07 15:04 49.99009 -47.35713 39279 ft 459 kts 256°
2026-05-07 15:05 49.97356 -47.45281 39277 ft 458 kts 256°
2026-05-07 15:05 49.95696 -47.54837 39273 ft 458 kts 256°
2026-05-07 15:06 49.94041 -47.64315 39280 ft 457 kts 255°
2026-05-07 15:06 49.92386 -47.73744 39276 ft 450 kts 255°
2026-05-07 15:07 49.90730 -47.83128 39268 ft 452 kts 255°
2026-05-07 15:07 49.89059 -47.92543 39271 ft 453 kts 255°
2026-05-07 15:08 49.87392 -48.01891 39274 ft 453 kts 255°
2026-05-07 15:08 49.85707 -48.11287 39268 ft 451 kts 255°
2026-05-07 15:09 49.84021 -48.20645 39263 ft 451 kts 255°
2026-05-07 15:09 49.82328 -48.29990 39261 ft 450 kts 255°
2026-05-07 15:10 49.80640 -48.39264 39267 ft 451 kts 255°
2026-05-07 15:10 49.78930 -48.48607 39263 ft 452 kts 255°
2026-05-07 15:11 49.77213 -48.57945 39252 ft 450 kts 254°
2026-05-07 15:11 49.75499 -48.67212 39250 ft 448 kts 253°
2026-05-07 15:12 49.73779 -48.76471 39254 ft 448 kts 253°
2026-05-07 15:12 49.72058 -48.85686 39254 ft 449 kts 253°
2026-05-07 15:13 49.70326 -48.94918 39265 ft 449 kts 253°
2026-05-07 15:13 49.68581 -49.04176 39249 ft 448 kts 253°
2026-05-07 15:14 49.66833 -49.13394 39248 ft 446 kts 253°
2026-05-07 15:14 49.65097 -49.22514 39247 ft 446 kts 253°
2026-05-07 15:15 49.63336 -49.31713 39243 ft 448 kts 253°
2026-05-07 15:15 49.61563 -49.40933 39262 ft 448 kts 253°
2026-05-07 15:16 49.59793 -49.50097 39249 ft 441 kts 252°
2026-05-07 15:16 49.58045 -49.59097 39253 ft 441 kts 252°
2026-05-07 15:17 49.56274 -49.68179 39259 ft 443 kts 252°
2026-05-07 15:17 49.54491 -49.77274 39255 ft 444 kts 252°
2026-05-07 15:18 49.52713 -49.86305 39254 ft 443 kts 252°
2026-05-07 15:18 49.50918 -49.95379 39254 ft 443 kts 252°
2026-05-07 15:19 49.48968 -50.04351 39251 ft 442 kts 249°
2026-05-07 15:19 49.46829 -50.13213 39247 ft 442 kts 249°
2026-05-07 15:20 49.44715 -50.22026 39245 ft 443 kts 249°
2026-05-07 15:20 49.42563 -50.30902 39246 ft 443 kts 249°
2026-05-07 15:21 49.40418 -50.39754 39238 ft 438 kts 248°
2026-05-07 15:21 49.38293 -50.48462 39228 ft 435 kts 248°
2026-05-07 15:22 49.36175 -50.57120 39232 ft 437 kts 248°
2026-05-07 15:22 49.34029 -50.65853 39232 ft 438 kts 248°
2026-05-07 15:23 49.31874 -50.74588 39229 ft 438 kts 248°
2026-05-07 15:23 49.29711 -50.83328 39231 ft 439 kts 248°
2026-05-07 15:24 49.27556 -50.91995 39229 ft 438 kts 248°
2026-05-07 15:24 49.25382 -51.00707 39227 ft 437 kts 248°
2026-05-07 15:25 49.23206 -51.09391 39224 ft 437 kts 247°
2026-05-07 15:25 49.21028 -51.18051 39219 ft 436 kts 247°
2026-05-07 15:26 49.18861 -51.26634 39215 ft 435 kts 247°
2026-05-07 15:26 49.16676 -51.35255 39212 ft 435 kts 247°
2026-05-07 15:27 49.14483 -51.43877 39213 ft 436 kts 247°
2026-05-07 15:27 49.12292 -51.52455 39210 ft 437 kts 247°
2026-05-07 15:28 49.10074 -51.61111 39216 ft 439 kts 247°
2026-05-07 15:28 49.07844 -51.69779 39208 ft 438 kts 246°
2026-05-07 15:29 49.05618 -51.78393 39203 ft 435 kts 246°
2026-05-07 15:29 49.03412 -51.86903 39199 ft 435 kts 246°
2026-05-07 15:30 49.01179 -51.95483 39201 ft 436 kts 246°
2026-05-07 15:30 48.98928 -52.04072 39205 ft 437 kts 246°
2026-05-07 15:31 48.96619 -52.12648 39210 ft 438 kts 245°
2026-05-07 15:31 48.95476 -52.16926 39498 ft 435 kts 246°
2026-05-07 15:31 48.94356 -52.21124 39803 ft 433 kts 246°
2026-05-07 15:32 48.93214 -52.25369 40014 ft 434 kts 245°
2026-05-07 15:32 48.92064 -52.29622 40154 ft 436 kts 245°
2026-05-07 15:32 48.89741 -52.38230 40184 ft 441 kts 245°
2026-05-07 15:33 48.87419 -52.46798 40187 ft 437 kts 245°
2026-05-07 15:33 48.85115 -52.55264 40183 ft 436 kts 245°
2026-05-07 15:34 48.82800 -52.63747 40185 ft 435 kts 245°
2026-05-07 15:34 48.80472 -52.72237 40170 ft 436 kts 245°
2026-05-07 15:35 48.78135 -52.80737 40174 ft 437 kts 244°
2026-05-07 15:35 48.75785 -52.89250 40170 ft 438 kts 244°
2026-05-07 15:36 48.73443 -52.97707 40178 ft 437 kts 244°
2026-05-07 15:36 48.71092 -53.06163 40159 ft 435 kts 244°
2026-05-07 15:37 48.68740 -53.14594 40157 ft 434 kts 244°
2026-05-07 15:37 48.66384 -53.23011 40180 ft 434 kts 244°
2026-05-07 15:38 48.64424 -53.29989 40162 ft 433 kts 244°
2026-05-07 15:38 48.62184 -53.37937 40162 ft 433 kts 244°
2026-05-07 15:39 48.59818 -53.46307 40160 ft 433 kts 244°
2026-05-07 15:39 48.57449 -53.54659 40160 ft 432 kts 244°
2026-05-07 15:40 48.55076 -53.62993 40158 ft 432 kts 244°
2026-05-07 15:40 48.52699 -53.71311 40155 ft 432 kts 244°
2026-05-07 15:41 48.50329 -53.79579 40160 ft 433 kts 244°
2026-05-07 15:41 48.47929 -53.87923 40159 ft 434 kts 244°
2026-05-07 15:42 48.45515 -53.96285 40156 ft 436 kts 243°
2026-05-07 15:42 48.43092 -54.04650 40152 ft 435 kts 243°
2026-05-07 15:43 48.40676 -54.12965 40153 ft 432 kts 243°
2026-05-07 15:43 48.38277 -54.21189 40139 ft 433 kts 243°
2026-05-07 15:44 48.35848 -54.29489 40140 ft 434 kts 243°
2026-05-07 15:44 48.33406 -54.37805 40140 ft 435 kts 243°
2026-05-07 15:45 48.30951 -54.46136 40138 ft 436 kts 243°
2026-05-07 15:45 48.28511 -54.54392 40130 ft 435 kts 243°
2026-05-07 15:46 48.24822 -54.66813 40130 ft 434 kts 243°
2026-05-07 15:47 48.22355 -54.75090 40130 ft 435 kts 243°
2026-05-07 15:47 48.19878 -54.83369 40124 ft 435 kts 243°
2026-05-07 15:48 48.17409 -54.91594 40090 ft 436 kts 243°
2026-05-07 15:48 48.14916 -54.99870 40073 ft 436 kts 243°
2026-05-07 15:49 48.12408 -55.08171 40081 ft 439 kts 243°
2026-05-07 15:49 48.09881 -55.16504 40079 ft 439 kts 243°
2026-05-07 15:50 48.07367 -55.24768 40053 ft 438 kts 243°
2026-05-07 15:50 48.04837 -55.33056 40044 ft 438 kts 243°
2026-05-07 15:51 48.02306 -55.41320 40040 ft 437 kts 243°
2026-05-07 15:51 47.99770 -55.49574 40033 ft 438 kts 243°
2026-05-07 15:52 47.97225 -55.57831 40029 ft 438 kts 243°
2026-05-07 15:52 47.94670 -55.66089 40013 ft 438 kts 243°
2026-05-07 15:53 47.92126 -55.74286 40013 ft 438 kts 243°
2026-05-07 15:53 47.89560 -55.82529 40000 ft 439 kts 243°
2026-05-07 15:54 47.86985 -55.90772 39999 ft 439 kts 243°
2026-05-07 15:54 47.84401 -55.99017 39987 ft 438 kts 243°
2026-05-07 15:55 47.81835 -56.07178 39983 ft 434 kts 243°
2026-05-07 15:55 47.79282 -56.15268 39975 ft 436 kts 243°
2026-05-07 15:56 47.76714 -56.23384 39977 ft 432 kts 244°
2026-05-07 15:56 47.74154 -56.31448 39976 ft 431 kts 244°
2026-05-07 15:57 47.71589 -56.39500 39982 ft 432 kts 244°
2026-05-07 15:57 47.69014 -56.47559 39983 ft 432 kts 243°
2026-05-07 15:58 47.66447 -56.55569 40005 ft 433 kts 244°
2026-05-07 15:58 47.63878 -56.63561 39988 ft 427 kts 244°
2026-05-07 15:59 47.61314 -56.71509 39995 ft 427 kts 243°
2026-05-07 15:59 47.58743 -56.79453 39995 ft 428 kts 244°
2026-05-07 16:00 47.56161 -56.87410 40007 ft 429 kts 243°
2026-05-07 16:00 47.53591 -56.95303 40010 ft 429 kts 243°
2026-05-07 16:01 47.50988 -57.03274 40016 ft 431 kts 243°
2026-05-07 16:01 47.48374 -57.11253 40017 ft 431 kts 243°
2026-05-07 16:02 47.45756 -57.19221 40008 ft 431 kts 243°
2026-05-07 16:02 47.43153 -57.27117 40008 ft 430 kts 243°
2026-05-07 16:03 47.40526 -57.35062 39999 ft 431 kts 243°
2026-05-07 16:03 47.37889 -57.43011 39997 ft 432 kts 243°
2026-05-07 16:04 47.35241 -57.50970 39994 ft 432 kts 243°
2026-05-07 16:04 47.32585 -57.58931 39991 ft 432 kts 243°
2026-05-07 16:05 47.29946 -57.66812 39978 ft 431 kts 243°
2026-05-07 16:05 47.27298 -57.74700 39974 ft 428 kts 243°
2026-05-07 16:06 47.24657 -57.82541 39968 ft 428 kts 243°
2026-05-07 16:06 47.22008 -57.90384 39965 ft 428 kts 243°
2026-05-07 16:07 47.19369 -57.98172 39961 ft 429 kts 243°
2026-05-07 16:07 47.16703 -58.06014 39954 ft 429 kts 243°
2026-05-07 16:08 47.14045 -58.13813 39952 ft 425 kts 243°
2026-05-07 16:08 47.11394 -58.21568 39949 ft 425 kts 243°
2026-05-07 16:09 47.08757 -58.29259 39948 ft 425 kts 243°
2026-05-07 16:09 47.06094 -58.37000 39934 ft 425 kts 243°
2026-05-07 16:10 47.03428 -58.44729 39932 ft 424 kts 243°
2026-05-07 16:10 47.00990 -58.51778 39924 ft 419 kts 243°
2026-05-07 16:11 46.98338 -58.59422 39931 ft 424 kts 243°
2026-05-07 16:11 46.95674 -58.67081 39932 ft 425 kts 243°
2026-05-07 16:12 46.92988 -58.74780 39917 ft 424 kts 243°
2026-05-07 16:12 46.90299 -58.82462 39899 ft 424 kts 243°
2026-05-07 16:13 46.87618 -58.90104 39901 ft 422 kts 243°
2026-05-07 16:13 46.84952 -58.97677 39898 ft 422 kts 243°
2026-05-07 16:14 46.82264 -59.05293 39883 ft 422 kts 243°
2026-05-07 16:14 46.79571 -59.12903 39880 ft 422 kts 243°
2026-05-07 16:15 46.76872 -59.20504 39878 ft 422 kts 243°
2026-05-07 16:15 46.74185 -59.28052 39878 ft 422 kts 243°
2026-05-07 16:16 46.71476 -59.35639 39876 ft 422 kts 243°
2026-05-07 16:16 46.68746 -59.43264 39872 ft 427 kts 242°
2026-05-07 16:17 46.65995 -59.50925 39873 ft 427 kts 242°
2026-05-07 16:17 46.63266 -59.58505 39858 ft 423 kts 243°
2026-05-07 16:18 46.60534 -59.66069 39854 ft 422 kts 243°
2026-05-07 16:18 46.57798 -59.73623 39837 ft 422 kts 243°
2026-05-07 16:19 46.55058 -59.81168 39831 ft 422 kts 242°
2026-05-07 16:19 46.52311 -59.88709 39815 ft 422 kts 243°
2026-05-07 16:20 46.49590 -59.96159 39837 ft 420 kts 243°
2026-05-07 16:20 46.46849 -60.03644 39832 ft 420 kts 243°
2026-05-07 16:21 46.44103 -60.11122 39833 ft 420 kts 243°
2026-05-07 16:21 46.41354 -60.18586 39832 ft 420 kts 243°
2026-05-07 16:22 46.38617 -60.25996 39828 ft 420 kts 243°
2026-05-07 16:22 46.35864 -60.33430 39825 ft 418 kts 243°
2026-05-07 16:23 46.33111 -60.40843 39808 ft 418 kts 243°
2026-05-07 16:23 46.30353 -60.48251 39810 ft 419 kts 243°
2026-05-07 16:24 46.27578 -60.55681 39809 ft 420 kts 243°
2026-05-07 16:24 46.24821 -60.63043 39804 ft 418 kts 243°
2026-05-07 16:25 46.22056 -60.70412 39809 ft 417 kts 243°
2026-05-07 16:25 46.19285 -60.77771 39811 ft 417 kts 243°
2026-05-07 16:26 46.16506 -60.85133 39816 ft 418 kts 243°
2026-05-07 16:26 46.13719 -60.92495 39823 ft 419 kts 243°
2026-05-07 16:27 46.10952 -60.99788 39808 ft 419 kts 242°
2026-05-07 16:27 46.08129 -61.07205 39813 ft 423 kts 242°
2026-05-07 16:28 46.05299 -61.14620 39808 ft 422 kts 242°
2026-05-07 16:28 46.02471 -61.22012 39810 ft 421 kts 242°
2026-05-07 16:29 45.99661 -61.29336 39783 ft 419 kts 242°
2026-05-07 16:29 45.96874 -61.36581 39776 ft 412 kts 242°
2026-05-07 16:30 45.94086 -61.43810 39784 ft 414 kts 242°
2026-05-07 16:30 45.91287 -61.51048 39783 ft 415 kts 242°
2026-05-07 16:31 45.88482 -61.58283 39783 ft 415 kts 242°
2026-05-07 16:31 45.85698 -61.65442 39763 ft 410 kts 242°
2026-05-07 16:32 45.82927 -61.72552 39761 ft 408 kts 242°
2026-05-07 16:32 45.80132 -61.79705 39771 ft 415 kts 242°
2026-05-07 16:33 45.77322 -61.86876 39776 ft 416 kts 242°
2026-05-07 16:33 45.74490 -61.94085 39764 ft 415 kts 242°
2026-05-07 16:34 45.71676 -62.01229 39749 ft 408 kts 242°
2026-05-07 16:34 45.68888 -62.08292 39749 ft 408 kts 242°
2026-05-07 16:35 45.66083 -62.15375 39759 ft 410 kts 242°
2026-05-07 16:35 45.63293 -62.22404 39744 ft 409 kts 242°
2026-05-07 16:36 45.60481 -62.29474 39746 ft 409 kts 242°
2026-05-07 16:36 45.57699 -62.36446 39728 ft 401 kts 242°
2026-05-07 16:37 45.54931 -62.43371 39747 ft 403 kts 242°
2026-05-07 16:37 45.52163 -62.50272 39752 ft 404 kts 241°
2026-05-07 16:38 45.49367 -62.57229 39742 ft 404 kts 241°
2026-05-07 16:38 45.46567 -62.64177 39739 ft 404 kts 241°
2026-05-07 16:39 45.43781 -62.71076 39742 ft 404 kts 241°
2026-05-07 16:39 45.40978 -62.77999 39743 ft 404 kts 241°
2026-05-07 16:40 45.38164 -62.84929 39734 ft 404 kts 241°
2026-05-07 16:40 45.35351 -62.91844 39736 ft 404 kts 241°
2026-05-07 16:41 45.32537 -62.98741 39735 ft 402 kts 241°
2026-05-07 16:41 45.29730 -63.05606 39733 ft 402 kts 241°
2026-05-07 16:42 45.26934 -63.12424 39724 ft 402 kts 241°
2026-05-07 16:42 45.24111 -63.19294 39736 ft 403 kts 241°
2026-05-07 16:43 45.21327 -63.26053 39756 ft 403 kts 240°
2026-05-07 16:43 45.18494 -63.32912 39725 ft 402 kts 241°
2026-05-07 16:44 45.15667 -63.39742 39723 ft 402 kts 241°
2026-05-07 16:44 45.12858 -63.46512 39725 ft 402 kts 240°
2026-05-07 16:45 45.10026 -63.53317 39723 ft 401 kts 240°
2026-05-07 16:45 45.07194 -63.60109 39716 ft 401 kts 241°
2026-05-07 16:46 45.04381 -63.66840 39725 ft 400 kts 241°
2026-05-07 16:46 45.01546 -63.73605 39715 ft 400 kts 240°
2026-05-07 16:47 44.98720 -63.80335 39718 ft 400 kts 240°
2026-05-07 16:47 44.95872 -63.87100 39718 ft 401 kts 240°
2026-05-07 16:48 44.93011 -63.93878 39728 ft 400 kts 241°
2026-05-07 16:48 44.90200 -64.00523 39718 ft 398 kts 240°
2026-05-07 16:49 44.87345 -64.07261 39715 ft 400 kts 240°
2026-05-07 16:49 44.84493 -64.13966 39713 ft 399 kts 240°
2026-05-07 16:50 44.81630 -64.20689 39718 ft 400 kts 240°
2026-05-07 16:50 44.78785 -64.27348 39703 ft 397 kts 240°
2026-05-07 16:51 44.75940 -64.33996 39701 ft 397 kts 240°
2026-05-07 16:51 44.73088 -64.40645 39705 ft 397 kts 240°
2026-05-07 16:52 44.70230 -64.47291 39707 ft 397 kts 240°
2026-05-07 16:52 44.67396 -64.53865 39707 ft 398 kts 240°
2026-05-07 16:53 44.64557 -64.60436 39718 ft 396 kts 240°
2026-05-07 16:53 44.61698 -64.67040 39719 ft 396 kts 240°
2026-05-07 16:54 44.58826 -64.73657 39726 ft 400 kts 240°
2026-05-07 16:54 44.55930 -64.80312 39722 ft 400 kts 240°
2026-05-07 16:55 44.53030 -64.86961 39720 ft 398 kts 240°
2026-05-07 16:55 44.50190 -64.93457 39720 ft 391 kts 240°
2026-05-07 16:56 44.47374 -64.99889 39729 ft 393 kts 240°
2026-05-07 16:56 44.43069 -65.09688 39737 ft 395 kts 240°
2026-05-07 16:57 44.40208 -65.16181 39734 ft 395 kts 240°
2026-05-07 16:57 44.37342 -65.22671 39727 ft 390 kts 240°
2026-05-07 16:58 44.34489 -65.29120 39729 ft 390 kts 240°
2026-05-07 16:58 44.31633 -65.35558 39727 ft 390 kts 240°
2026-05-07 16:59 44.28769 -65.42003 39738 ft 394 kts 240°
2026-05-07 16:59 44.25862 -65.48525 39740 ft 400 kts 240°
2026-05-07 17:00 44.22943 -65.55061 39734 ft 395 kts 240°
2026-05-07 17:00 44.20039 -65.61551 39734 ft 395 kts 240°
2026-05-07 17:01 44.17124 -65.68051 39732 ft 396 kts 240°
2026-05-07 17:01 44.14190 -65.74575 39737 ft 398 kts 240°
2026-05-07 17:02 44.11267 -65.81062 39740 ft 398 kts 240°
2026-05-07 17:02 44.08326 -65.87574 39741 ft 397 kts 240°
2026-05-07 17:03 44.05389 -65.94062 39737 ft 396 kts 240°
2026-05-07 17:03 44.02455 -66.00530 39731 ft 395 kts 240°
2026-05-07 17:04 43.99543 -66.06937 39719 ft 395 kts 240°
2026-05-07 17:04 43.96607 -66.13379 39745 ft 396 kts 240°
2026-05-07 17:05 43.93657 -66.19838 39744 ft 396 kts 239°
2026-05-07 17:05 43.90750 -66.26190 39746 ft 396 kts 239°
2026-05-07 17:06 43.87791 -66.32642 39748 ft 396 kts 239°
2026-05-07 17:06 43.84828 -66.39085 39731 ft 395 kts 240°
2026-05-07 17:07 43.81913 -66.45413 39736 ft 392 kts 240°
2026-05-07 17:07 43.78977 -66.51773 39736 ft 392 kts 240°
2026-05-07 17:08 43.76032 -66.58136 39742 ft 393 kts 240°
2026-05-07 17:08 43.73079 -66.64505 39742 ft 393 kts 240°
2026-05-07 17:09 43.70134 -66.70840 39743 ft 390 kts 240°
2026-05-07 17:09 43.67232 -66.77074 39759 ft 392 kts 240°
2026-05-07 17:10 43.64262 -66.83434 39765 ft 395 kts 239°
2026-05-07 17:10 43.61288 -66.89792 39767 ft 394 kts 239°
2026-05-07 17:11 43.58317 -66.96129 39749 ft 392 kts 240°
2026-05-07 17:11 43.55484 -67.02429 39760 ft 387 kts 243°
2026-05-07 17:12 43.52781 -67.08878 39759 ft 390 kts 242°
2026-05-07 17:12 43.50055 -67.15356 39764 ft 391 kts 242°
2026-05-07 17:13 43.47796 -67.20731 39766 ft 390 kts 242°
2026-05-07 17:13 43.45074 -67.27175 39760 ft 388 kts 242°
2026-05-07 17:14 43.41928 -67.34620 39764 ft 387 kts 242°
2026-05-07 17:14 43.39658 -67.39974 39765 ft 387 kts 242°
2026-05-07 17:15 43.36965 -67.46315 39762 ft 387 kts 242°
2026-05-07 17:15 43.34250 -67.52694 39763 ft 387 kts 242°
2026-05-07 17:16 43.31534 -67.59059 39785 ft 384 kts 242°
2026-05-07 17:16 43.28832 -67.65381 39783 ft 384 kts 242°
2026-05-07 17:17 43.26122 -67.71707 39783 ft 385 kts 242°
2026-05-07 17:17 43.23420 -67.78000 39789 ft 386 kts 242°
2026-05-07 17:18 43.20693 -67.84338 39791 ft 386 kts 242°
2026-05-07 17:18 43.17963 -67.90666 39776 ft 383 kts 242°
2026-05-07 17:19 43.15263 -67.96916 39806 ft 381 kts 242°
2026-05-07 17:19 43.12562 -68.03154 39786 ft 385 kts 242°
2026-05-07 17:20 43.09827 -68.09453 39789 ft 385 kts 242°
2026-05-07 17:20 43.07093 -68.15741 39790 ft 385 kts 242°
2026-05-07 17:21 43.04364 -68.21998 39784 ft 380 kts 242°
2026-05-07 17:21 43.01657 -68.28197 39788 ft 380 kts 242°
2026-05-07 17:22 42.98958 -68.34364 39786 ft 381 kts 242°
2026-05-07 17:22 42.96230 -68.40582 39795 ft 382 kts 242°
2026-05-07 17:23 42.93496 -68.46802 39795 ft 382 kts 242°
2026-05-07 17:23 42.90766 -68.52996 39823 ft 379 kts 242°
2026-05-07 17:24 42.88064 -68.59121 39805 ft 380 kts 242°
2026-05-07 17:24 42.85336 -68.65284 39804 ft 380 kts 242°
2026-05-07 17:25 42.82605 -68.71447 39802 ft 380 kts 242°
2026-05-07 17:25 42.79869 -68.77605 39802 ft 380 kts 242°
2026-05-07 17:26 42.77152 -68.83709 39807 ft 380 kts 242°
2026-05-07 17:26 42.74407 -68.89865 39806 ft 382 kts 242°
2026-05-07 17:27 42.71644 -68.96043 39807 ft 382 kts 242°
2026-05-07 17:27 42.68880 -69.02213 39811 ft 382 kts 242°
2026-05-07 17:28 42.66134 -69.08331 39782 ft 382 kts 242°
2026-05-07 17:28 42.63383 -69.14444 39806 ft 378 kts 242°
2026-05-07 17:29 42.60640 -69.20534 39824 ft 379 kts 242°
2026-05-07 17:29 42.57872 -69.26661 39817 ft 382 kts 242°
2026-05-07 17:30 42.55111 -69.32760 39821 ft 382 kts 242°
2026-05-07 17:30 42.52328 -69.38896 39793 ft 381 kts 242°
2026-05-07 17:31 42.49577 -69.44947 39811 ft 376 kts 242°
2026-05-07 17:31 42.46832 -69.50979 39809 ft 377 kts 242°
2026-05-07 17:32 42.44084 -69.57002 39820 ft 381 kts 242°
2026-05-07 17:32 42.41293 -69.63102 39820 ft 381 kts 242°
2026-05-07 17:33 42.38506 -69.69184 39789 ft 379 kts 242°
2026-05-07 17:33 42.35757 -69.75171 39814 ft 373 kts 242°
2026-05-07 17:34 42.33010 -69.81148 39818 ft 375 kts 242°
2026-05-07 17:34 42.30262 -69.87108 39852 ft 377 kts 242°
2026-05-07 17:35 42.27463 -69.93167 39825 ft 380 kts 241°
2026-05-07 17:35 42.24674 -69.99189 39772 ft 377 kts 242°
2026-05-07 17:36 42.21926 -70.05116 39817 ft 372 kts 242°
2026-05-07 17:36 42.19189 -70.11011 39831 ft 375 kts 242°
2026-05-07 17:37 42.16410 -70.16977 39850 ft 375 kts 242°
2026-05-07 17:37 42.13629 -70.22940 39850 ft 378 kts 241°
2026-05-07 17:38 42.10825 -70.28936 39850 ft 378 kts 241°
2026-05-07 17:38 42.08062 -70.34833 39815 ft 373 kts 242°
2026-05-07 17:39 42.05297 -70.40735 39817 ft 373 kts 242°
2026-05-07 17:39 42.03040 -70.46967 39816 ft 370 kts 249°
2026-05-07 17:40 42.01033 -70.53360 39813 ft 372 kts 248°
2026-05-07 17:40 41.99020 -70.59762 39824 ft 376 kts 248°
2026-05-07 17:41 41.96984 -70.66230 39768 ft 375 kts 248°
2026-05-07 17:41 41.94976 -70.72585 39806 ft 367 kts 249°
2026-05-07 17:42 41.92975 -70.78913 39806 ft 369 kts 248°
2026-05-07 17:42 41.90960 -70.85262 39810 ft 370 kts 248°
2026-05-07 17:43 41.88944 -70.91605 39843 ft 376 kts 248°
2026-05-07 17:43 41.86888 -70.98050 39839 ft 374 kts 248°
2026-05-07 17:44 41.84843 -71.04452 39831 ft 373 kts 248°
2026-05-07 17:44 41.82810 -71.10794 39824 ft 366 kts 248°
2026-05-07 17:45 41.80816 -71.17012 39755 ft 363 kts 248°
2026-05-07 17:45 41.79825 -71.20091 39130 ft 353 kts 248°
2026-05-07 17:45 41.78879 -71.23024 38614 ft 338 kts 248°
2026-05-07 17:46 41.77954 -71.25898 38082 ft 334 kts 248°
2026-05-07 17:46 41.77041 -71.28732 37604 ft 329 kts 248°
2026-05-07 17:46 41.76140 -71.31518 37160 ft 323 kts 248°
2026-05-07 17:46 41.75251 -71.34266 36749 ft 320 kts 248°
2026-05-07 17:47 41.74353 -71.36977 36354 ft 317 kts 246°
2026-05-07 17:47 41.73294 -71.39579 35678 ft 319 kts 242°
2026-05-07 17:47 41.72071 -71.42045 35139 ft 317 kts 239°
2026-05-07 17:47 41.70725 -71.44311 34669 ft 314 kts 236°
2026-05-07 17:48 41.69232 -71.46427 34219 ft 311 kts 232°
2026-05-07 17:48 41.67629 -71.48344 33833 ft 308 kts 229°
2026-05-07 17:48 41.65995 -71.50148 33417 ft 301 kts 229°
2026-05-07 17:48 41.64409 -71.51923 32981 ft 295 kts 229°
2026-05-07 17:49 41.62851 -71.53672 32626 ft 290 kts 229°
2026-05-07 17:49 41.61304 -71.55402 32274 ft 290 kts 229°
2026-05-07 17:49 41.59745 -71.57141 31953 ft 293 kts 229°
2026-05-07 17:49 41.58183 -71.58875 31585 ft 289 kts 229°
2026-05-07 17:50 41.56674 -71.60548 31241 ft 283 kts 229°
2026-05-07 17:50 41.55177 -71.62214 30892 ft 278 kts 229°
2026-05-07 17:50 41.53693 -71.63870 30565 ft 279 kts 229°
2026-05-07 17:50 41.52191 -71.65546 30198 ft 284 kts 229°
2026-05-07 17:51 41.50666 -71.67237 29876 ft 283 kts 228°
2026-05-07 17:51 41.49168 -71.68887 29506 ft 276 kts 229°
2026-05-07 17:51 41.47704 -71.70509 29166 ft 272 kts 229°
2026-05-07 17:51 41.46244 -71.72137 28845 ft 276 kts 229°
2026-05-07 17:52 41.44760 -71.73786 28528 ft 279 kts 228°
2026-05-07 17:52 41.43295 -71.75399 28196 ft 273 kts 228°
2026-05-07 17:52 41.41845 -71.76994 27867 ft 268 kts 229°
2026-05-07 17:52 41.40416 -71.78580 27557 ft 269 kts 229°
2026-05-07 17:53 41.38968 -71.80189 27249 ft 274 kts 228°
2026-05-07 17:53 41.37500 -71.81808 26942 ft 271 kts 228°
2026-05-07 17:53 41.36062 -71.83384 26611 ft 265 kts 228°
2026-05-07 17:53 41.34648 -71.84945 26308 ft 264 kts 229°
2026-05-07 17:54 41.33224 -71.86524 26005 ft 269 kts 228°
2026-05-07 17:54 41.31777 -71.88120 25701 ft 271 kts 228°
2026-05-07 17:54 41.30343 -71.89688 25384 ft 263 kts 228°
2026-05-07 17:54 41.28959 -71.91207 25118 ft 261 kts 229°
2026-05-07 17:55 41.27560 -71.92755 24816 ft 263 kts 228°
2026-05-07 17:55 41.26140 -71.94320 24511 ft 267 kts 228°
2026-05-07 17:55 41.24716 -71.95878 24199 ft 262 kts 228°
2026-05-07 17:55 41.23323 -71.97399 23893 ft 258 kts 228°
2026-05-07 17:56 41.21941 -71.98922 23600 ft 260 kts 228°
2026-05-07 17:56 41.20539 -72.00466 23298 ft 264 kts 228°
2026-05-07 17:56 41.19116 -72.02025 22973 ft 265 kts 227°
2026-05-07 17:56 41.17729 -72.03535 22596 ft 258 kts 227°
2026-05-07 17:57 41.16349 -72.05045 22309 ft 258 kts 227°
2026-05-07 17:57 41.15429 -72.06058 22133 ft 262 kts 227°
2026-05-07 17:57 41.13543 -72.08126 21743 ft 266 kts 227°
2026-05-07 17:57 41.12199 -72.09728 21436 ft 255 kts 231°
2026-05-07 17:58 41.11032 -72.11493 21145 ft 256 kts 236°
2026-05-07 17:58 41.10014 -72.13447 20860 ft 260 kts 240°
2026-05-07 17:58 41.09163 -72.15563 20565 ft 257 kts 245°
2026-05-07 17:58 41.08516 -72.17747 20270 ft 253 kts 250°
2026-05-07 17:59 41.07974 -72.19985 19980 ft 258 kts 250°
2026-05-07 17:59 41.07404 -72.22274 19700 ft 264 kts 250°
2026-05-07 17:59 41.06833 -72.24565 19413 ft 258 kts 250°
2026-05-07 17:59 41.06283 -72.26787 19141 ft 259 kts 250°
2026-05-07 18:00 41.05710 -72.29096 18862 ft 268 kts 250°
2026-05-07 18:00 41.05124 -72.31457 18558 ft 268 kts 250°
2026-05-07 18:00 41.04547 -72.33777 18259 ft 264 kts 250°
2026-05-07 18:00 41.03967 -72.36106 17943 ft 269 kts 250°
2026-05-07 18:01 41.03381 -72.38456 17634 ft 265 kts 250°
2026-05-07 18:01 41.02813 -72.40738 17345 ft 259 kts 250°
2026-05-07 18:01 41.02245 -72.43008 17062 ft 261 kts 250°
2026-05-07 18:01 41.01679 -72.45272 16784 ft 264 kts 251°
2026-05-07 18:02 41.00545 -72.49808 16210 ft 256 kts 251°
2026-05-07 18:02 40.99982 -72.52051 15932 ft 259 kts 251°
2026-05-07 18:02 40.99412 -72.54320 15649 ft 260 kts 251°
2026-05-07 18:03 40.98848 -72.56569 15346 ft 253 kts 251°
2026-05-07 18:03 40.98294 -72.58776 15074 ft 253 kts 251°
2026-05-07 18:03 40.97735 -72.60993 14821 ft 256 kts 251°
2026-05-07 18:03 40.97173 -72.63226 14665 ft 254 kts 251°
2026-05-07 18:04 40.96620 -72.65420 14532 ft 256 kts 251°
2026-05-07 18:04 40.96063 -72.67629 14332 ft 245 kts 251°
2026-05-07 18:04 40.95521 -72.69778 14131 ft 250 kts 251°
2026-05-07 18:04 40.94963 -72.71983 13903 ft 254 kts 251°
2026-05-07 18:05 40.94411 -72.74165 13642 ft 246 kts 251°
2026-05-07 18:05 40.93867 -72.76314 13357 ft 248 kts 251°
2026-05-07 18:05 40.93213 -72.78432 13063 ft 251 kts 243°
2026-05-07 18:05 40.92204 -72.80333 12774 ft 254 kts 233°
2026-05-07 18:06 40.90906 -72.81884 12484 ft 253 kts 223°
2026-05-07 18:06 40.89486 -72.83224 12192 ft 257 kts 223°
2026-05-07 18:06 40.88024 -72.84628 11934 ft 260 kts 223°
2026-05-07 18:06 40.86582 -72.86010 11655 ft 254 kts 223°
2026-05-07 18:07 40.85149 -72.87387 11383 ft 257 kts 223°
2026-05-07 18:07 40.83697 -72.88783 11092 ft 259 kts 223°
2026-05-07 18:07 40.82249 -72.90166 10808 ft 253 kts 223°
2026-05-07 18:07 40.80822 -72.91530 10529 ft 253 kts 223°
2026-05-07 18:08 40.79419 -72.92871 10282 ft 243 kts 223°
2026-05-07 18:08 40.78089 -72.94138 10161 ft 229 kts 224°
2026-05-07 18:08 40.76831 -72.95345 10042 ft 228 kts 224°
2026-05-07 18:08 40.75523 -72.96609 9814 ft 235 kts 224°
2026-05-07 18:09 40.74236 -72.97827 9633 ft 219 kts 224°
2026-05-07 18:09 40.73044 -72.98953 9403 ft 204 kts 225°
2026-05-07 18:09 40.71937 -73.00011 9194 ft 190 kts 225°
2026-05-07 18:09 40.70891 -73.01016 9008 ft 186 kts 225°
2026-05-07 18:10 40.69830 -73.02040 8865 ft 192 kts 225°
2026-05-07 18:10 40.68793 -73.03150 8654 ft 190 kts 233°
2026-05-07 18:10 40.68120 -73.04538 8454 ft 178 kts 249°
2026-05-07 18:10 40.67643 -73.06073 8316 ft 185 kts 251°
2026-05-07 18:11 40.67137 -73.07644 8151 ft 184 kts 251°
2026-05-07 18:11 40.66807 -73.08657 8032 ft 180 kts 251°
2026-05-07 18:11 40.66177 -73.10596 7791 ft 164 kts 252°
2026-05-07 18:11 40.65757 -73.11896 7617 ft 149 kts 252°
2026-05-07 18:12 40.65365 -73.13110 7462 ft 143 kts 253°
2026-05-07 18:12 40.64972 -73.14344 7331 ft 150 kts 253°
2026-05-07 18:12 40.64567 -73.15599 7194 ft 147 kts 253°
2026-05-07 18:12 40.64176 -73.16796 7048 ft 143 kts 253°
2026-05-07 18:13 40.63778 -73.18038 6915 ft 149 kts 254°
2026-05-07 18:13 40.63372 -73.19293 6774 ft 150 kts 254°
2026-05-07 18:13 40.62959 -73.20569 6620 ft 153 kts 254°
2026-05-07 18:13 40.62552 -73.21814 6475 ft 145 kts 254°
2026-05-07 18:14 40.62147 -73.23080 6322 ft 157 kts 255°
2026-05-07 18:14 40.61708 -73.24447 6162 ft 165 kts 254°
2026-05-07 18:14 40.61256 -73.25829 6001 ft 168 kts 254°
2026-05-07 18:14 40.60798 -73.27232 5816 ft 163 kts 254°
2026-05-07 18:15 40.60349 -73.28618 5658 ft 168 kts 254°
2026-05-07 18:15 40.59886 -73.30047 5496 ft 171 kts 253°
2026-05-07 18:15 40.59416 -73.31498 5333 ft 172 kts 251°
2026-05-07 18:15 40.58952 -73.32916 5142 ft 169 kts 251°
2026-05-07 18:16 40.58481 -73.34367 4980 ft 175 kts 251°
2026-05-07 18:16 40.58001 -73.35843 4800 ft 175 kts 250°
2026-05-07 18:16 40.57526 -73.37294 4620 ft 173 kts 250°
2026-05-07 18:16 40.57054 -73.38743 4445 ft 176 kts 250°
2026-05-07 18:17 40.56576 -73.40207 4262 ft 171 kts 250°
2026-05-07 18:17 40.56107 -73.41645 4080 ft 173 kts 251°
2026-05-07 18:17 40.55631 -73.43111 3918 ft 175 kts 251°
2026-05-07 18:17 40.55150 -73.44582 3735 ft 175 kts 250°
2026-05-07 18:18 40.54675 -73.46033 3557 ft 169 kts 250°
2026-05-07 18:18 40.54207 -73.47465 3394 ft 173 kts 250°
2026-05-07 18:18 40.53732 -73.48919 3228 ft 173 kts 249°
2026-05-07 18:18 40.53287 -73.50358 3048 ft 168 kts 253°
2026-05-07 18:19 40.53422 -73.51827 2760 ft 166 kts 300°
2026-05-07 18:19 40.54072 -73.53025 2905 ft 162 kts 303°
2026-05-07 18:19 40.54614 -73.54379 3006 ft 170 kts 299°
2026-05-07 18:19 40.55192 -73.55732 3001 ft 169 kts 302°
2026-05-07 18:20 40.55792 -73.57062 3004 ft 169 kts 302°
2026-05-07 18:20 40.56392 -73.58387 3000 ft 169 kts 302°
2026-05-07 18:20 40.57007 -73.59710 2921 ft 173 kts 303°
2026-05-07 18:20 40.57626 -73.61048 2694 ft 168 kts 302°
2026-05-07 18:21 40.58197 -73.62311 2477 ft 156 kts 302°
2026-05-07 18:21 40.58724 -73.63485 2306 ft 146 kts 302°
2026-05-07 18:21 40.59248 -73.64646 2067 ft 148 kts 302°
2026-05-07 18:21 40.59775 -73.65783 1830 ft 145 kts 301°
2026-05-07 18:22 40.60288 -73.66929 1671 ft 146 kts 302°
2026-05-07 18:22 40.60630 -73.67680 1470 ft 143 kts 301°
2026-05-07 18:22 40.61309 -73.69181 1293 ft 147 kts 302°
2026-05-07 18:22 40.61834 -73.70338 1084 ft 147 kts 302°
2026-05-07 18:23 40.62345 -73.71458 862 ft 135 kts 302°
2026-05-07 18:23 40.62821 -73.72497 696 ft 135 kts 301°
2026-05-07 18:23 40.63303 -73.73575 533 ft 135 kts 303°
2026-05-07 18:23 40.63781 -73.74618 324 ft 131 kts 301°
2026-05-07 18:24 40.64228 -73.75635 170 ft 128 kts 306°
2026-05-07 18:24 40.64697 -73.76647 35 ft 131 kts 304°
2026-05-07 18:24 40.65112 -73.77558 28 ft 87 kts 300°